Time,TemperatureF,DewpointF,PressureIn,WindDirection,WindDirectionDegrees,WindSpeedMPH,WindSpeedGustMPH,Humidity,HourlyPrecipIn,Conditions,Clouds,dailyrainin,SoftwareType,DateUTC
2013-04-21 00:02:00,45.5,37.0,30.10,SW,225,12.0,12.0,72,0.00,,,0.00,meteohub,2013-04-20 23:02:00,
2013-04-21 00:07:00,45.5,37.0,30.10,SSW,202,10.0,12.0,72,0.00,,,0.00,meteohub,2013-04-20 23:07:00,
2013-04-21 00:13:00,45.5,37.0,30.10,SSW,202,9.0,12.0,72,0.00,,,0.00,meteohub,2013-04-20 23:13:00,
2013-04-21 00:18:00,45.5,37.4,30.10,SSW,202,7.0,13.0,73,0.00,,,0.00,meteohub,2013-04-20 23:18:00,
2013-04-21 00:23:00,45.3,37.2,30.10,SW,225,6.0,13.0,73,0.00,,,0.00,meteohub,2013-04-20 23:23:00,
2013-04-21 00:28:00,45.5,37.8,30.10,SW,225,4.0,13.0,74,0.00,,,0.00,meteohub,2013-04-20 23:28:00,
2013-04-21 00:33:00,45.5,37.8,30.10,SSW,202,4.0,13.0,74,0.00,,,0.00,meteohub,2013-04-20 23:33:00,
2013-04-21 00:38:00,45.5,37.8,30.10,SW,225,11.0,11.0,74,0.00,,,0.00,meteohub,2013-04-20 23:38:00,
2013-04-21 00:43:00,45.5,37.8,30.10,SSW,202,7.0,11.0,74,0.00,,,0.00,meteohub,2013-04-20 23:43:00,
2013-04-21 00:48:00,45.5,38.1,30.07,SW,225,12.0,12.0,75,0.00,,,0.00,meteohub,2013-04-20 23:48:00,
2013-04-21 00:53:00,45.5,38.1,30.07,SSW,202,6.0,13.0,75,0.00,,,0.00,meteohub,2013-04-20 23:53:00,
2013-04-21 00:59:00,45.5,38.3,30.07,SW,225,6.0,13.0,76,0.00,,,0.00,meteohub,2013-04-20 23:59:00,
2013-04-21 01:04:00,45.7,38.5,30.07,SW,225,4.0,15.0,76,0.00,,,0.00,meteohub,2013-04-21 00:04:00,
2013-04-21 01:09:00,45.7,38.5,30.07,SW,225,8.0,15.0,76,0.00,,,0.00,meteohub,2013-04-21 00:09:00,
2013-04-21 01:14:00,45.7,38.5,30.07,WSW,247,6.0,15.0,76,0.00,,,0.00,meteohub,2013-04-21 00:14:00,
2013-04-21 01:19:00,45.9,39.0,30.07,SSW,202,8.0,16.0,77,0.00,,,0.00,meteohub,2013-04-21 00:19:00,
2013-04-21 01:24:00,45.9,39.0,30.07,WSW,247,8.0,16.0,77,0.00,,,0.00,meteohub,2013-04-21 00:24:00,
2013-04-21 01:29:00,45.9,39.0,30.07,SW,225,10.0,16.0,77,0.00,,,0.00,meteohub,2013-04-21 00:29:00,
2013-04-21 01:34:00,45.9,39.4,30.07,SSW,202,5.0,15.0,78,0.00,,,0.00,meteohub,2013-04-21 00:34:00,
2013-04-21 01:39:00,45.9,39.4,30.07,SW,225,9.0,15.0,78,0.00,,,0.00,meteohub,2013-04-21 00:39:00,
2013-04-21 01:44:00,45.9,39.4,30.07,SW,225,9.0,13.0,78,0.00,,,0.00,meteohub,2013-04-21 00:44:00,
2013-04-21 01:49:00,45.9,39.4,30.04,WSW,247,9.0,13.0,78,0.00,,,0.00,meteohub,2013-04-21 00:49:00,
2013-04-21 01:55:00,45.9,39.4,30.04,SW,225,6.0,18.0,78,0.00,,,0.00,meteohub,2013-04-21 00:55:00,
2013-04-21 02:00:00,45.9,39.7,30.04,SW,225,10.0,18.0,79,0.00,,,0.00,meteohub,2013-04-21 01:00:00,
2013-04-21 02:05:00,45.9,39.7,30.04,SW,225,10.0,15.0,79,0.00,,,0.00,meteohub,2013-04-21 01:05:00,
2013-04-21 02:10:00,45.9,40.1,30.04,SSW,202,9.0,15.0,80,0.00,,,0.00,meteohub,2013-04-21 01:10:00,
2013-04-21 02:15:00,45.9,40.1,30.04,SSW,202,10.0,16.0,80,0.00,,,0.00,meteohub,2013-04-21 01:15:00,
2013-04-21 02:20:00,45.9,39.7,30.04,SSW,202,8.0,16.0,79,0.00,,,0.00,meteohub,2013-04-21 01:20:00,
2013-04-21 02:25:00,45.9,40.1,30.04,SSW,202,6.0,17.0,80,0.00,,,0.00,meteohub,2013-04-21 01:25:00,
2013-04-21 02:30:00,45.9,40.1,30.04,SW,225,10.0,17.0,80,0.00,,,0.00,meteohub,2013-04-21 01:30:00,
2013-04-21 02:35:00,45.9,40.1,30.01,SW,225,4.0,17.0,80,0.00,,,0.00,meteohub,2013-04-21 01:35:00,
2013-04-21 02:40:00,45.9,40.1,30.01,SSW,202,6.0,16.0,80,0.00,,,0.00,meteohub,2013-04-21 01:40:00,
2013-04-21 02:45:00,45.9,40.1,30.01,South,180,9.0,16.0,80,0.00,,,0.00,meteohub,2013-04-21 01:45:00,
2013-04-21 02:51:00,45.9,40.1,30.01,SW,225,10.0,13.0,80,0.00,,,0.00,meteohub,2013-04-21 01:51:00,
2013-04-21 02:56:00,45.9,40.1,30.01,SSW,202,4.0,13.0,80,0.00,,,0.00,meteohub,2013-04-21 01:56:00,
2013-04-21 03:01:00,45.9,40.1,30.01,SSW,202,8.0,15.0,80,0.00,,,0.00,meteohub,2013-04-21 02:01:00,
2013-04-21 03:06:00,45.9,40.1,30.01,SSW,202,10.0,15.0,80,0.00,,,0.00,meteohub,2013-04-21 02:06:00,
2013-04-21 03:11:00,45.9,40.1,30.01,SSW,202,10.0,15.0,80,0.00,,,0.00,meteohub,2013-04-21 02:11:00,
2013-04-21 03:16:00,45.7,39.9,30.01,South,180,3.0,13.0,80,0.00,,,0.00,meteohub,2013-04-21 02:16:00,
2013-04-21 03:21:00,45.7,39.9,30.01,SSE,157,4.0,13.0,80,0.00,,,0.00,meteohub,2013-04-21 02:21:00,
2013-04-21 03:26:00,45.7,39.9,30.01,SSW,202,7.0,11.0,80,0.00,,,0.00,meteohub,2013-04-21 02:26:00,
2013-04-21 03:31:00,45.7,39.9,30.01,South,180,6.0,11.0,80,0.00,,,0.00,meteohub,2013-04-21 02:31:00,
2013-04-21 03:36:00,45.7,39.9,29.98,SSW,202,8.0,11.0,80,0.00,,,0.00,meteohub,2013-04-21 02:36:00,
2013-04-21 03:42:00,45.7,40.1,29.98,SW,225,6.0,11.0,81,0.00,,,0.00,meteohub,2013-04-21 02:42:00,
2013-04-21 03:47:00,45.7,39.9,29.98,South,180,9.0,11.0,80,0.00,,,0.00,meteohub,2013-04-21 02:47:00,
2013-04-21 03:52:00,45.7,40.1,30.01,SSW,202,15.0,15.0,81,0.00,,,0.00,meteohub,2013-04-21 02:52:00,
2013-04-21 03:57:00,45.7,40.1,30.01,SSW,202,10.0,16.0,81,0.00,,,0.00,meteohub,2013-04-21 02:57:00,
2013-04-21 04:02:00,45.7,40.1,30.01,SSW,202,7.0,16.0,81,0.00,,,0.00,meteohub,2013-04-21 03:02:00,
2013-04-21 04:07:00,45.7,40.1,29.98,SW,225,8.0,16.0,81,0.00,,,0.00,meteohub,2013-04-21 03:07:00,
2013-04-21 04:12:00,45.7,40.1,29.98,South,180,6.0,15.0,81,0.00,,,0.00,meteohub,2013-04-21 03:12:00,
2013-04-21 04:17:00,45.7,40.1,29.98,South,180,9.0,15.0,81,0.00,,,0.00,meteohub,2013-04-21 03:17:00,
2013-04-21 04:22:00,45.7,40.1,29.98,SSW,202,11.0,15.0,81,0.00,,,0.00,meteohub,2013-04-21 03:22:00,
2013-04-21 04:27:00,45.5,40.1,29.98,SSW,202,11.0,15.0,81,0.00,,,0.00,meteohub,2013-04-21 03:27:00,
2013-04-21 04:32:00,45.5,40.1,29.98,SSW,202,9.0,15.0,81,0.00,,,0.00,meteohub,2013-04-21 03:32:00,
2013-04-21 04:38:00,45.5,40.1,29.98,SW,225,13.0,15.0,81,0.00,,,0.00,meteohub,2013-04-21 03:38:00,
2013-04-21 04:43:00,45.5,40.1,29.98,SSW,202,8.0,15.0,81,0.00,,,0.00,meteohub,2013-04-21 03:43:00,
2013-04-21 04:48:00,45.5,40.1,29.98,SSW,202,6.0,15.0,81,0.00,,,0.00,meteohub,2013-04-21 03:48:00,
2013-04-21 04:53:00,45.3,39.9,29.98,SSW,202,6.0,15.0,81,0.00,,,0.00,meteohub,2013-04-21 03:53:00,
2013-04-21 04:58:00,45.3,39.9,29.98,SSW,202,13.0,15.0,81,0.00,,,0.00,meteohub,2013-04-21 03:58:00,
2013-04-21 05:01:00,45.3,39.9,29.98,SSW,202,9.0,15.0,81,0.00,,,0.00,meteohub,2013-04-21 04:01:00,
2013-04-21 05:02:00,45.3,39.9,29.98,WSW,247,6.0,15.0,81,0.00,,,0.00,meteohub,2013-04-21 04:02:00,
2013-04-21 05:06:00,45.3,39.9,29.98,SSE,157,6.0,15.0,81,0.00,,,0.00,meteohub,2013-04-21 04:06:00,
2013-04-21 05:07:00,45.3,39.9,29.98,SW,225,8.0,15.0,81,0.00,,,0.00,meteohub,2013-04-21 04:07:00,
2013-04-21 05:12:00,45.3,39.9,29.98,SW,225,10.0,16.0,81,0.00,,,0.00,meteohub,2013-04-21 04:12:00,
2013-04-21 05:17:00,45.3,39.9,29.98,SSW,202,6.0,16.0,81,0.00,,,0.00,meteohub,2013-04-21 04:17:00,
2013-04-21 05:22:00,45.3,39.9,29.95,South,180,6.0,16.0,81,0.00,,,0.00,meteohub,2013-04-21 04:22:00,
2013-04-21 05:27:00,45.3,39.9,29.95,SW,225,11.0,15.0,81,0.00,,,0.00,meteohub,2013-04-21 04:27:00,
2013-04-21 05:32:00,45.3,39.9,29.95,SSW,202,6.0,15.0,81,0.00,,,0.00,meteohub,2013-04-21 04:32:00,
2013-04-21 05:37:00,45.3,39.9,29.95,SW,225,6.0,17.0,81,0.00,,,0.00,meteohub,2013-04-21 04:37:00,
2013-04-21 05:42:00,45.3,39.9,29.95,SW,225,10.0,17.0,81,0.00,,,0.00,meteohub,2013-04-21 04:42:00,
2013-04-21 05:47:00,45.3,39.9,29.95,SSW,202,10.0,17.0,81,0.00,,,0.00,meteohub,2013-04-21 04:47:00,
2013-04-21 05:52:00,45.3,39.6,29.95,SSW,202,8.0,15.0,80,0.00,,,0.00,meteohub,2013-04-21 04:52:00,
2013-04-21 05:57:00,45.3,39.6,29.95,SSW,202,5.0,15.0,80,0.00,,,0.00,meteohub,2013-04-21 04:57:00,
2013-04-21 06:02:00,45.3,39.9,29.95,SSW,202,17.0,17.0,81,0.00,,,0.00,meteohub,2013-04-21 05:02:00,
2013-04-21 06:08:00,45.3,39.9,29.95,SSW,202,9.0,18.0,81,0.00,,,0.00,meteohub,2013-04-21 05:08:00,
2013-04-21 06:13:00,45.3,40.1,29.95,SW,225,13.0,20.0,82,0.00,,,0.00,meteohub,2013-04-21 05:13:00,
2013-04-21 06:18:00,45.3,40.1,29.95,SSW,202,13.0,20.0,82,0.00,,,0.00,meteohub,2013-04-21 05:18:00,
2013-04-21 06:23:00,45.3,39.9,29.95,SW,225,10.0,20.0,81,0.00,,,0.00,meteohub,2013-04-21 05:23:00,
2013-04-21 06:28:00,45.3,39.9,29.95,SSE,157,10.0,15.0,81,0.00,,,0.00,meteohub,2013-04-21 05:28:00,
2013-04-21 06:33:00,45.3,40.1,29.92,SSW,202,9.0,15.0,82,0.00,,,0.00,meteohub,2013-04-21 05:33:00,
2013-04-21 06:38:00,45.3,40.1,29.92,SSW,202,10.0,13.0,82,0.00,,,0.00,meteohub,2013-04-21 05:38:00,
2013-04-21 06:43:00,45.3,40.5,29.92,SW,225,10.0,13.0,83,0.00,,,0.00,meteohub,2013-04-21 05:43:00,
2013-04-21 06:48:00,45.1,39.9,29.95,SW,225,7.0,13.0,82,0.00,,,0.00,meteohub,2013-04-21 05:48:00,
2013-04-21 06:53:00,45.1,40.3,29.95,West,270,6.0,13.0,83,0.00,,,0.00,meteohub,2013-04-21 05:53:00,
2013-04-21 06:58:00,45.1,40.3,29.95,SW,225,11.0,13.0,83,0.00,,,0.00,meteohub,2013-04-21 05:58:00,
2013-04-21 07:04:00,45.1,40.3,29.95,SSW,202,15.0,20.0,83,0.00,,,0.00,meteohub,2013-04-21 06:04:00,
2013-04-21 07:09:00,45.3,40.5,29.95,SSW,202,15.0,20.0,83,0.00,,,0.00,meteohub,2013-04-21 06:09:00,
2013-04-21 07:14:00,45.3,40.5,29.95,SW,225,8.0,20.0,83,0.00,,,0.00,meteohub,2013-04-21 06:14:00,
2013-04-21 07:19:00,45.3,40.5,29.95,SSW,202,10.0,17.0,83,0.00,,,0.00,meteohub,2013-04-21 06:19:00,
2013-04-21 07:24:00,45.3,40.5,29.95,WSW,247,11.0,17.0,83,0.00,,,0.00,meteohub,2013-04-21 06:24:00,
2013-04-21 07:29:00,45.3,40.5,29.95,SSW,202,13.0,17.0,83,0.00,,,0.00,meteohub,2013-04-21 06:29:00,
2013-04-21 07:34:00,45.3,40.5,29.92,SSW,202,10.0,17.0,83,0.00,,,0.00,meteohub,2013-04-21 06:34:00,
2013-04-21 07:39:00,45.3,40.5,29.92,SSW,202,12.0,17.0,83,0.00,,,0.00,meteohub,2013-04-21 06:39:00,
2013-04-21 07:44:00,45.3,40.5,29.92,SSW,202,9.0,17.0,83,0.00,,,0.00,meteohub,2013-04-21 06:44:00,
2013-04-21 07:49:00,45.3,40.5,29.92,South,180,4.0,24.0,83,0.00,,,0.00,meteohub,2013-04-21 06:49:00,
2013-04-21 07:55:00,45.5,40.6,29.92,SW,225,9.0,24.0,83,0.00,,,0.00,meteohub,2013-04-21 06:55:00,
2013-04-21 08:00:00,45.7,41.2,29.92,WSW,247,11.0,24.0,84,0.00,,,0.00,meteohub,2013-04-21 07:00:00,
2013-04-21 08:05:00,45.7,40.8,29.92,SSW,202,15.0,17.0,83,0.00,,,0.00,meteohub,2013-04-21 07:05:00,
2013-04-21 08:10:00,45.9,41.0,29.92,SSW,202,17.0,18.0,83,0.00,,,0.00,meteohub,2013-04-21 07:10:00,
2013-04-21 08:15:00,45.9,41.0,29.92,SSW,202,6.0,18.0,83,0.00,,,0.00,meteohub,2013-04-21 07:15:00,
2013-04-21 08:20:00,45.9,41.0,29.92,South,180,12.0,18.0,83,0.00,,,0.00,meteohub,2013-04-21 07:20:00,
2013-04-21 08:25:00,45.9,41.0,29.92,SSW,202,19.0,19.0,83,0.00,,,0.00,meteohub,2013-04-21 07:25:00,
2013-04-21 08:30:00,46.0,41.2,29.92,SSW,202,10.0,19.0,83,0.00,,,0.00,meteohub,2013-04-21 07:30:00,
2013-04-21 08:35:00,46.0,41.2,29.92,SSW,202,14.0,19.0,83,0.00,,,0.00,meteohub,2013-04-21 07:35:00,
2013-04-21 08:40:00,46.0,41.2,29.92,SSW,202,11.0,19.0,83,0.00,,,0.00,meteohub,2013-04-21 07:40:00,
2013-04-21 08:45:00,46.2,41.4,29.92,SSW,202,10.0,16.0,83,0.00,,,0.00,meteohub,2013-04-21 07:45:00,
2013-04-21 08:51:00,46.2,41.4,29.89,SSW,202,8.0,17.0,83,0.00,,,0.00,meteohub,2013-04-21 07:51:00,
2013-04-21 08:56:00,46.4,41.2,29.89,SSW,202,10.0,17.0,82,0.00,,,0.00,meteohub,2013-04-21 07:56:00,
2013-04-21 09:01:00,46.4,41.5,29.89,SSW,202,9.0,17.0,83,0.00,,,0.00,meteohub,2013-04-21 08:01:00,
2013-04-21 09:06:00,46.4,41.5,29.89,West,270,12.0,17.0,83,0.00,,,0.00,meteohub,2013-04-21 08:06:00,
2013-04-21 09:11:00,46.4,41.5,29.89,SW,225,18.0,18.0,83,0.00,,,0.00,meteohub,2013-04-21 08:11:00,
2013-04-21 09:16:00,46.4,41.9,29.89,WSW,247,8.0,19.0,84,0.00,,,0.00,meteohub,2013-04-21 08:16:00,
2013-04-21 09:21:00,46.6,42.1,29.89,SSW,202,13.0,19.0,84,0.00,,,0.00,meteohub,2013-04-21 08:21:00,
2013-04-21 09:26:00,46.8,42.4,29.89,SSW,202,11.0,19.0,85,0.00,,,0.00,meteohub,2013-04-21 08:26:00,
2013-04-21 09:31:00,46.8,42.4,29.89,SW,225,6.0,20.0,85,0.00,,,0.00,meteohub,2013-04-21 08:31:00,
2013-04-21 09:36:00,46.9,42.6,29.89,SW,225,8.0,20.0,85,0.00,,,0.00,meteohub,2013-04-21 08:36:00,
2013-04-21 09:42:00,46.9,42.6,29.89,SW,225,8.0,20.0,85,0.00,,,0.00,meteohub,2013-04-21 08:42:00,
2013-04-21 09:47:00,47.1,42.8,29.89,SSW,202,9.0,13.0,85,0.00,,,0.00,meteohub,2013-04-21 08:47:00,
2013-04-21 09:52:00,47.1,42.8,29.89,SSW,202,8.0,14.0,85,0.00,,,0.00,meteohub,2013-04-21 08:52:00,
2013-04-21 09:57:00,47.3,43.3,29.89,SSW,202,5.0,14.0,86,0.00,,,0.00,meteohub,2013-04-21 08:57:00,
2013-04-21 10:02:00,47.3,43.3,29.89,WSW,247,6.0,14.0,86,0.00,,,0.00,meteohub,2013-04-21 09:02:00,
2013-04-21 10:07:00,47.5,43.5,29.89,SW,225,11.0,14.0,86,0.00,,,0.00,meteohub,2013-04-21 09:07:00,
2013-04-21 10:12:00,47.7,44.1,29.89,SSW,202,9.0,14.0,87,0.00,,,0.00,meteohub,2013-04-21 09:12:00,
2013-04-21 10:17:00,48.0,44.4,29.89,SW,225,9.0,13.0,87,0.00,,,0.00,meteohub,2013-04-21 09:17:00,
2013-04-21 10:22:00,48.2,44.6,29.89,SSW,202,8.0,15.0,87,0.00,,,0.00,meteohub,2013-04-21 09:22:00,
2013-04-21 10:27:00,48.4,44.8,29.89,SSW,202,6.0,15.0,87,0.00,,,0.00,meteohub,2013-04-21 09:27:00,
2013-04-21 10:32:00,48.4,44.8,29.89,SSW,202,13.0,17.0,87,0.00,,,0.00,meteohub,2013-04-21 09:32:00,
2013-04-21 10:37:00,48.6,44.8,29.89,SW,225,11.0,17.0,87,0.00,,,0.00,meteohub,2013-04-21 09:37:00,
2013-04-21 10:42:00,48.9,45.1,29.89,SSW,202,12.0,17.0,87,0.00,,,0.00,meteohub,2013-04-21 09:42:00,
2013-04-21 10:47:00,49.1,45.1,29.89,West,270,13.0,21.0,86,0.00,,,0.00,meteohub,2013-04-21 09:47:00,
2013-04-21 10:52:00,48.2,43.0,29.89,WSW,247,8.0,23.0,82,0.00,,,0.00,meteohub,2013-04-21 09:52:00,
2013-04-21 10:57:00,47.8,43.0,29.89,West,270,12.0,23.0,83,0.01,,,0.01,meteohub,2013-04-21 09:57:00,
2013-04-21 11:02:00,47.7,43.0,29.89,WSW,247,7.0,23.0,84,0.01,,,0.01,meteohub,2013-04-21 10:02:00,
2013-04-21 11:07:00,47.8,43.2,29.89,WSW,247,8.0,17.0,84,0.01,,,0.01,meteohub,2013-04-21 10:07:00,
2013-04-21 11:12:00,47.8,43.5,29.89,WNW,292,7.0,17.0,85,0.02,,,0.02,meteohub,2013-04-21 10:12:00,
2013-04-21 11:17:00,47.8,43.9,29.89,WSW,247,6.0,15.0,86,0.02,,,0.02,meteohub,2013-04-21 10:17:00,
2013-04-21 11:22:00,47.8,43.5,29.89,WSW,247,6.0,15.0,85,0.02,,,0.02,meteohub,2013-04-21 10:22:00,
2013-04-21 11:27:00,47.8,43.9,29.89,WSW,247,9.0,16.0,86,0.02,,,0.02,meteohub,2013-04-21 10:27:00,
2013-04-21 11:33:00,47.8,43.5,29.89,SSW,202,10.0,16.0,85,0.02,,,0.02,meteohub,2013-04-21 10:33:00,
2013-04-21 11:38:00,48.2,43.9,29.89,WSW,247,11.0,16.0,85,0.01,,,0.02,meteohub,2013-04-21 10:38:00,
2013-04-21 11:43:00,48.2,44.2,29.89,WSW,247,13.0,13.0,86,0.01,,,0.02,meteohub,2013-04-21 10:43:00,
2013-04-21 11:48:00,48.2,43.9,29.89,SW,225,13.0,16.0,85,0.01,,,0.02,meteohub,2013-04-21 10:48:00,
2013-04-21 11:53:00,48.2,43.9,29.89,WSW,247,6.0,16.0,85,0.01,,,0.02,meteohub,2013-04-21 10:53:00,
2013-04-21 11:58:00,48.7,44.8,29.89,West,270,8.0,16.0,86,0.00,,,0.02,meteohub,2013-04-21 10:58:00,
2013-04-21 12:03:00,49.1,45.1,29.86,WSW,247,12.0,15.0,86,0.00,,,0.02,meteohub,2013-04-21 11:03:00,
2013-04-21 12:08:00,49.1,45.1,29.86,WSW,247,13.0,13.0,86,0.00,,,0.02,meteohub,2013-04-21 11:08:00,
2013-04-21 12:13:00,49.1,44.8,29.86,WSW,247,11.0,15.0,85,0.00,,,0.02,meteohub,2013-04-21 11:13:00,
2013-04-21 12:18:00,48.9,44.2,29.86,WSW,247,6.0,15.0,84,0.00,,,0.02,meteohub,2013-04-21 11:18:00,
2013-04-21 12:23:00,48.7,44.1,29.86,SW,225,10.0,15.0,84,0.00,,,0.02,meteohub,2013-04-21 11:23:00,
2013-04-21 12:29:00,48.9,44.6,29.86,WSW,247,8.0,15.0,85,0.00,,,0.02,meteohub,2013-04-21 11:29:00,
2013-04-21 12:34:00,49.5,45.5,29.86,WSW,247,12.0,18.0,86,0.00,,,0.02,meteohub,2013-04-21 11:34:00,
2013-04-21 12:39:00,49.8,45.5,29.86,WSW,247,13.0,18.0,85,0.00,,,0.02,meteohub,2013-04-21 11:39:00,
2013-04-21 12:44:00,49.6,45.3,29.86,WSW,247,10.0,18.0,85,0.00,,,0.02,meteohub,2013-04-21 11:44:00,
2013-04-21 12:50:00,49.3,44.4,29.86,WSW,247,12.0,14.0,83,0.00,,,0.02,meteohub,2013-04-21 11:50:00,
2013-04-21 12:55:00,49.1,44.2,29.86,SW,225,13.0,13.0,83,0.00,,,0.02,meteohub,2013-04-21 11:55:00,
2013-04-21 13:00:00,49.1,44.2,29.86,WSW,247,10.0,13.0,83,0.00,,,0.02,meteohub,2013-04-21 12:00:00,
2013-04-21 13:05:00,49.3,44.4,29.86,SSW,202,10.0,13.0,83,0.00,,,0.02,meteohub,2013-04-21 12:05:00,
2013-04-21 13:10:00,49.3,44.1,29.86,WSW,247,13.0,14.0,82,0.00,,,0.02,meteohub,2013-04-21 12:10:00,
2013-04-21 13:15:00,49.8,45.1,29.86,SW,225,13.0,14.0,84,0.00,,,0.02,meteohub,2013-04-21 12:15:00,
2013-04-21 13:20:00,50.4,45.7,29.86,WSW,247,13.0,14.0,84,0.00,,,0.02,meteohub,2013-04-21 12:20:00,
2013-04-21 13:25:00,50.7,45.7,29.86,SW,225,8.0,15.0,83,0.00,,,0.02,meteohub,2013-04-21 12:25:00,
2013-04-21 13:31:00,50.9,45.9,29.86,WSW,247,13.0,15.0,83,0.00,,,0.02,meteohub,2013-04-21 12:31:00,
2013-04-21 13:36:00,51.3,46.0,29.86,WSW,247,13.0,15.0,82,0.00,,,0.02,meteohub,2013-04-21 12:36:00,
2013-04-21 13:41:00,51.3,45.3,29.86,West,270,13.0,20.0,80,0.00,,,0.02,meteohub,2013-04-21 12:41:00,
2013-04-21 13:46:00,51.3,44.6,29.86,WSW,247,11.0,20.0,78,0.00,,,0.02,meteohub,2013-04-21 12:46:00,
2013-04-21 13:51:00,51.3,44.2,29.86,WSW,247,11.0,20.0,77,0.00,,,0.02,meteohub,2013-04-21 12:51:00,
2013-04-21 13:56:00,51.6,45.0,29.86,SW,225,17.0,19.0,78,0.00,,,0.02,meteohub,2013-04-21 12:56:00,
2013-04-21 14:01:00,51.8,44.4,29.86,WSW,247,10.0,19.0,76,0.00,,,0.02,meteohub,2013-04-21 13:01:00,
2013-04-21 14:06:00,52.2,44.4,29.86,NW,315,10.0,18.0,75,0.00,,,0.02,meteohub,2013-04-21 13:06:00,
2013-04-21 14:11:00,52.0,43.9,29.86,West,270,8.0,18.0,74,0.00,,,0.02,meteohub,2013-04-21 13:11:00,
2013-04-21 14:16:00,51.6,42.4,29.86,WSW,247,10.0,18.0,71,0.00,,,0.02,meteohub,2013-04-21 13:16:00,
2013-04-21 14:22:00,51.6,43.0,29.86,WSW,247,15.0,18.0,72,0.00,,,0.02,meteohub,2013-04-21 13:22:00,
2013-04-21 14:27:00,51.4,42.4,29.86,WSW,247,9.0,15.0,71,0.00,,,0.02,meteohub,2013-04-21 13:27:00,
2013-04-21 14:32:00,51.4,42.8,29.86,WSW,247,10.0,15.0,72,0.00,,,0.02,meteohub,2013-04-21 13:32:00,
2013-04-21 14:37:00,51.1,42.4,29.86,WSW,247,8.0,15.0,72,0.00,,,0.02,meteohub,2013-04-21 13:37:00,
2013-04-21 14:42:00,50.7,41.7,29.86,WSW,247,11.0,16.0,71,0.00,,,0.02,meteohub,2013-04-21 13:42:00,
2013-04-21 14:47:00,50.4,41.4,29.86,WSW,247,12.0,16.0,71,0.00,,,0.02,meteohub,2013-04-21 13:47:00,
2013-04-21 14:52:00,50.2,41.9,29.86,SW,225,10.0,16.0,73,0.00,,,0.02,meteohub,2013-04-21 13:52:00,
2013-04-21 14:57:00,50.4,42.4,29.86,WSW,247,8.0,13.0,74,0.00,,,0.02,meteohub,2013-04-21 13:57:00,
2013-04-21 15:02:00,50.4,42.4,29.86,WSW,247,13.0,15.0,74,0.00,,,0.02,meteohub,2013-04-21 14:02:00,
2013-04-21 15:07:00,50.4,42.1,29.83,WSW,247,9.0,16.0,73,0.00,,,0.02,meteohub,2013-04-21 14:07:00,
2013-04-21 15:12:00,50.7,42.8,29.83,SW,225,7.0,16.0,74,0.00,,,0.02,meteohub,2013-04-21 14:12:00,
2013-04-21 15:17:00,50.9,43.0,29.83,SW,225,15.0,16.0,74,0.00,,,0.02,meteohub,2013-04-21 14:17:00,
2013-04-21 15:22:00,50.7,41.7,29.83,West,270,7.0,15.0,71,0.00,,,0.02,meteohub,2013-04-21 14:22:00,
2013-04-21 15:27:00,50.7,42.1,29.83,WSW,247,11.0,15.0,72,0.00,,,0.02,meteohub,2013-04-21 14:27:00,
2013-04-21 15:32:00,50.7,42.1,29.83,WSW,247,9.0,15.0,72,0.00,,,0.02,meteohub,2013-04-21 14:32:00,
2013-04-21 15:37:00,50.9,41.9,29.83,WSW,247,11.0,14.0,71,0.00,,,0.02,meteohub,2013-04-21 14:37:00,
2013-04-21 15:43:00,51.3,41.9,29.83,WSW,247,11.0,18.0,70,0.00,,,0.02,meteohub,2013-04-21 14:43:00,
2013-04-21 15:48:00,51.3,40.6,29.83,West,270,8.0,18.0,67,0.00,,,0.02,meteohub,2013-04-21 14:48:00,
2013-04-21 15:53:00,51.3,40.3,29.83,SW,225,6.0,18.0,66,0.00,,,0.02,meteohub,2013-04-21 14:53:00,
2013-04-21 15:58:00,51.6,41.0,29.83,WSW,247,13.0,17.0,67,0.00,,,0.02,meteohub,2013-04-21 14:58:00,
2013-04-21 16:03:00,51.6,39.9,29.83,WSW,247,7.0,17.0,64,0.00,,,0.02,meteohub,2013-04-21 15:03:00,
2013-04-21 16:08:00,52.0,39.4,29.83,WSW,247,13.0,15.0,62,0.00,,,0.02,meteohub,2013-04-21 15:08:00,
2013-04-21 16:13:00,52.2,39.9,29.83,WSW,247,13.0,16.0,63,0.00,,,0.02,meteohub,2013-04-21 15:13:00,
2013-04-21 16:18:00,52.2,39.6,29.83,WSW,247,11.0,17.0,62,0.00,,,0.02,meteohub,2013-04-21 15:18:00,
2013-04-21 16:23:00,52.3,39.4,29.83,West,270,11.0,17.0,61,0.00,,,0.02,meteohub,2013-04-21 15:23:00,
2013-04-21 16:28:00,52.5,39.0,29.83,WSW,247,11.0,17.0,60,0.00,,,0.02,meteohub,2013-04-21 15:28:00,
2013-04-21 16:34:00,52.7,39.2,29.83,SW,225,11.0,18.0,60,0.00,,,0.02,meteohub,2013-04-21 15:34:00,
2013-04-21 16:39:00,52.9,39.4,29.83,WNW,292,13.0,18.0,60,0.00,,,0.02,meteohub,2013-04-21 15:39:00,
2013-04-21 16:44:00,52.9,38.5,29.83,West,270,9.0,19.0,58,0.00,,,0.02,meteohub,2013-04-21 15:44:00,
2013-04-21 16:49:00,53.1,38.7,29.81,SW,225,9.0,19.0,58,0.00,,,0.02,meteohub,2013-04-21 15:49:00,
2013-04-21 16:54:00,52.9,38.1,29.81,WSW,247,6.0,19.0,57,0.00,,,0.02,meteohub,2013-04-21 15:54:00,
2013-04-21 16:59:00,53.1,37.8,29.81,WSW,247,10.0,17.0,56,0.00,,,0.02,meteohub,2013-04-21 15:59:00,
2013-04-21 17:04:00,52.7,37.0,29.81,WSW,247,11.0,18.0,55,0.00,,,0.02,meteohub,2013-04-21 16:04:00,
2013-04-21 17:09:00,52.7,37.4,29.81,WSW,247,16.0,18.0,56,0.00,,,0.02,meteohub,2013-04-21 16:09:00,
2013-04-21 17:14:00,51.4,37.2,29.81,WSW,247,18.0,18.0,58,0.00,,,0.02,meteohub,2013-04-21 16:14:00,
2013-04-21 17:19:00,50.7,37.8,29.81,WSW,247,15.0,28.0,61,0.00,,,0.02,meteohub,2013-04-21 16:19:00,
2013-04-21 17:24:00,49.8,38.5,29.81,WSW,247,13.0,28.0,65,0.00,,,0.02,meteohub,2013-04-21 16:24:00,
2013-04-21 17:30:00,49.3,38.8,29.81,WNW,292,7.0,28.0,67,0.00,,,0.02,meteohub,2013-04-21 16:30:00,
2013-04-21 17:35:00,48.7,39.0,29.81,SW,225,9.0,21.0,69,0.00,,,0.02,meteohub,2013-04-21 16:35:00,
2013-04-21 17:40:00,48.9,39.9,29.81,SW,225,7.0,20.0,71,0.00,,,0.02,meteohub,2013-04-21 16:40:00,
2013-04-21 17:45:00,49.1,40.5,29.81,WSW,247,10.0,17.0,72,0.00,,,0.02,meteohub,2013-04-21 16:45:00,
2013-04-21 17:50:00,49.3,40.6,29.81,WSW,247,9.0,17.0,72,0.00,,,0.02,meteohub,2013-04-21 16:50:00,
2013-04-21 17:55:00,49.3,40.3,29.81,West,270,11.0,18.0,71,0.00,,,0.02,meteohub,2013-04-21 16:55:00,
2013-04-21 18:00:00,49.5,40.8,29.81,WSW,247,11.0,18.0,72,0.00,,,0.02,meteohub,2013-04-21 17:00:00,
2013-04-21 18:05:00,49.3,40.3,29.81,WSW,247,11.0,18.0,71,0.00,,,0.02,meteohub,2013-04-21 17:05:00,
2013-04-21 18:10:00,49.1,40.1,29.81,WSW,247,11.0,15.0,71,0.00,,,0.02,meteohub,2013-04-21 17:10:00,
2013-04-21 18:15:00,48.7,39.4,29.81,WSW,247,11.0,17.0,70,0.00,,,0.02,meteohub,2013-04-21 17:15:00,
2013-04-21 18:20:00,48.6,39.2,29.81,WSW,247,11.0,17.0,70,0.00,,,0.02,meteohub,2013-04-21 17:20:00,
2013-04-21 18:26:00,48.6,39.2,29.81,WSW,247,9.0,17.0,70,0.00,,,0.02,meteohub,2013-04-21 17:26:00,
2013-04-21 18:31:00,48.4,39.0,29.81,WSW,247,11.0,16.0,70,0.00,,,0.02,meteohub,2013-04-21 17:31:00,
2013-04-21 18:36:00,48.6,39.6,29.81,WSW,247,10.0,17.0,71,0.00,,,0.02,meteohub,2013-04-21 17:36:00,
2013-04-21 18:41:00,48.4,39.7,29.81,WSW,247,17.0,19.0,72,0.00,,,0.02,meteohub,2013-04-21 17:41:00,
2013-04-21 18:46:00,48.2,39.6,29.81,SW,225,9.0,20.0,72,0.00,,,0.02,meteohub,2013-04-21 17:46:00,
2013-04-21 18:51:00,48.2,39.9,29.81,WSW,247,7.0,20.0,73,0.00,,,0.02,meteohub,2013-04-21 17:51:00,
2013-04-21 18:56:00,48.0,39.7,29.81,WSW,247,11.0,20.0,73,0.00,,,0.02,meteohub,2013-04-21 17:56:00,
2013-04-21 19:01:00,47.8,39.9,29.81,WSW,247,7.0,14.0,74,0.00,,,0.02,meteohub,2013-04-21 18:01:00,
2013-04-21 19:06:00,47.8,39.9,29.83,WSW,247,3.0,14.0,74,0.00,,,0.02,meteohub,2013-04-21 18:06:00,
2013-04-21 19:11:00,47.5,39.6,29.83,West,270,6.0,14.0,74,0.00,,,0.02,meteohub,2013-04-21 18:11:00,
2013-04-21 19:16:00,47.7,40.1,29.83,SW,225,7.0,10.0,75,0.00,,,0.02,meteohub,2013-04-21 18:16:00,
2013-04-21 19:22:00,47.7,39.7,29.81,WSW,247,9.0,17.0,74,0.00,,,0.02,meteohub,2013-04-21 18:22:00,
2013-04-21 19:27:00,47.5,39.6,29.81,West,270,9.0,17.0,74,0.00,,,0.02,meteohub,2013-04-21 18:27:00,
2013-04-21 19:32:00,47.5,39.6,29.81,WSW,247,9.0,17.0,74,0.00,,,0.02,meteohub,2013-04-21 18:32:00,
2013-04-21 19:37:00,47.3,39.0,29.81,WSW,247,6.0,15.0,73,0.00,,,0.02,meteohub,2013-04-21 18:37:00,
2013-04-21 19:42:00,47.3,39.0,29.81,WSW,247,9.0,14.0,73,0.00,,,0.02,meteohub,2013-04-21 18:42:00,
2013-04-21 19:47:00,46.9,38.3,29.81,WSW,247,4.0,16.0,72,0.00,,,0.02,meteohub,2013-04-21 18:47:00,
2013-04-21 19:52:00,46.8,38.3,29.81,WSW,247,6.0,16.0,72,0.00,,,0.02,meteohub,2013-04-21 18:52:00,
2013-04-21 19:57:00,46.6,38.1,29.81,SW,225,10.0,16.0,72,0.00,,,0.02,meteohub,2013-04-21 18:57:00,
2013-04-21 20:02:00,46.2,37.4,29.81,SW,225,11.0,13.0,71,0.00,,,0.02,meteohub,2013-04-21 19:02:00,
2013-04-21 20:07:00,46.0,37.6,29.81,SW,225,9.0,13.0,72,0.00,,,0.02,meteohub,2013-04-21 19:07:00,
2013-04-21 20:13:00,45.7,36.9,29.81,WSW,247,8.0,13.0,71,0.00,,,0.02,meteohub,2013-04-21 19:13:00,
2013-04-21 20:18:00,45.5,36.7,29.81,WSW,247,9.0,12.0,71,0.00,,,0.02,meteohub,2013-04-21 19:18:00,
2013-04-21 20:23:00,45.3,36.9,29.81,WSW,247,6.0,13.0,72,0.00,,,0.02,meteohub,2013-04-21 19:23:00,
2013-04-21 20:28:00,45.1,36.7,29.81,SW,225,6.0,13.0,72,0.00,,,0.02,meteohub,2013-04-21 19:28:00,
2013-04-21 20:33:00,44.8,36.3,29.83,WSW,247,6.0,13.0,72,0.00,,,0.02,meteohub,2013-04-21 19:33:00,
2013-04-21 20:38:00,44.8,36.3,29.83,SSW,202,9.0,13.0,72,0.00,,,0.02,meteohub,2013-04-21 19:38:00,
2013-04-21 20:43:00,44.6,36.1,29.83,SW,225,11.0,13.0,72,0.00,,,0.02,meteohub,2013-04-21 19:43:00,
2013-04-21 20:48:00,44.4,36.0,29.83,WSW,247,6.0,13.0,72,0.00,,,0.02,meteohub,2013-04-21 19:48:00,
2013-04-21 20:53:00,44.2,35.8,29.83,WSW,247,7.0,13.0,72,0.00,,,0.02,meteohub,2013-04-21 19:53:00,
2013-04-21 20:58:00,44.1,35.6,29.83,WSW,247,7.0,12.0,72,0.00,,,0.02,meteohub,2013-04-21 19:58:00,
2013-04-21 21:04:00,44.1,36.0,29.83,West,270,5.0,12.0,73,0.00,,,0.02,meteohub,2013-04-21 20:04:00,
2013-04-21 21:09:00,43.9,35.8,29.83,West,270,10.0,12.0,73,0.00,,,0.02,meteohub,2013-04-21 20:09:00,
2013-04-21 21:14:00,43.7,35.6,29.83,WSW,247,8.0,13.0,73,0.00,,,0.02,meteohub,2013-04-21 20:14:00,
2013-04-21 21:19:00,43.7,35.6,29.83,WSW,247,6.0,16.0,73,0.00,,,0.02,meteohub,2013-04-21 20:19:00,
2013-04-21 21:24:00,43.5,35.4,29.83,SW,225,6.0,16.0,73,0.00,,,0.02,meteohub,2013-04-21 20:24:00,
2013-04-21 21:29:00,43.3,35.2,29.83,WSW,247,10.0,16.0,73,0.00,,,0.02,meteohub,2013-04-21 20:29:00,
2013-04-21 21:34:00,43.2,35.4,29.83,WSW,247,5.0,13.0,74,0.00,,,0.02,meteohub,2013-04-21 20:34:00,
2013-04-21 21:39:00,43.0,35.2,29.83,SW,225,11.0,13.0,74,0.00,,,0.02,meteohub,2013-04-21 20:39:00,
2013-04-21 21:44:00,42.8,35.1,29.83,WSW,247,9.0,13.0,74,0.00,,,0.02,meteohub,2013-04-21 20:44:00,
2013-04-21 21:49:00,42.6,34.9,29.83,WSW,247,6.0,11.0,74,0.00,,,0.02,meteohub,2013-04-21 20:49:00,
2013-04-21 21:54:00,42.4,34.7,29.83,SSW,202,4.0,11.0,74,0.00,,,0.02,meteohub,2013-04-21 20:54:00,
2013-04-21 22:00:00,42.3,34.9,29.83,WSW,247,2.0,11.0,75,0.00,,,0.02,meteohub,2013-04-21 21:00:00,
2013-04-21 22:05:00,42.3,34.9,29.83,WSW,247,4.0,9.0,75,0.00,,,0.02,meteohub,2013-04-21 21:05:00,
2013-04-21 22:10:00,42.1,34.7,29.83,WSW,247,6.0,9.0,75,0.00,,,0.02,meteohub,2013-04-21 21:10:00,
2013-04-21 22:15:00,42.1,34.7,29.83,WSW,247,5.0,10.0,75,0.00,,,0.02,meteohub,2013-04-21 21:15:00,
2013-04-21 22:20:00,41.9,34.9,29.83,WSW,247,4.0,10.0,76,0.00,,,0.02,meteohub,2013-04-21 21:20:00,
2013-04-21 22:25:00,41.9,34.9,29.83,SW,225,6.0,10.0,76,0.00,,,0.02,meteohub,2013-04-21 21:25:00,
2013-04-21 22:30:00,41.7,35.1,29.83,WSW,247,9.0,9.0,77,0.00,,,0.02,meteohub,2013-04-21 21:30:00,
2013-04-21 22:35:00,41.7,35.1,29.83,WSW,247,4.0,9.0,77,0.00,,,0.02,meteohub,2013-04-21 21:35:00,
2013-04-21 22:40:00,41.5,35.2,29.83,WSW,247,6.0,9.0,78,0.00,,,0.02,meteohub,2013-04-21 21:40:00,
2013-04-21 22:45:00,41.5,35.2,29.83,SW,225,6.0,9.0,78,0.00,,,0.02,meteohub,2013-04-21 21:45:00,
2013-04-21 22:50:00,41.4,35.1,29.83,SW,225,5.0,7.0,78,0.00,,,0.02,meteohub,2013-04-21 21:50:00,
2013-04-21 22:56:00,41.2,35.2,29.83,WSW,247,6.0,10.0,79,0.00,,,0.02,meteohub,2013-04-21 21:56:00,
2013-04-21 23:01:00,41.0,35.1,29.83,SW,225,6.0,10.0,79,0.00,,,0.02,meteohub,2013-04-21 22:01:00,
2013-04-21 23:06:00,41.0,35.2,29.83,SW,225,5.0,10.0,80,0.00,,,0.02,meteohub,2013-04-21 22:06:00,
2013-04-21 23:11:00,40.8,35.4,29.83,SW,225,8.0,9.0,81,0.00,,,0.02,meteohub,2013-04-21 22:11:00,
2013-04-21 23:16:00,40.8,35.4,29.83,WSW,247,7.0,9.0,81,0.00,,,0.02,meteohub,2013-04-21 22:16:00,
2013-04-21 23:21:00,40.6,35.6,29.83,SW,225,6.0,9.0,82,0.00,,,0.02,meteohub,2013-04-21 22:21:00,
2013-04-21 23:26:00,40.6,35.6,29.83,SW,225,9.0,9.0,82,0.00,,,0.02,meteohub,2013-04-21 22:26:00,
2013-04-21 23:31:00,40.6,35.6,29.83,SW,225,6.0,10.0,82,0.00,,,0.02,meteohub,2013-04-21 22:31:00,
2013-04-21 23:36:00,40.6,35.6,29.83,SW,225,4.0,10.0,82,0.00,,,0.02,meteohub,2013-04-21 22:36:00,
2013-04-21 23:41:00,40.6,36.0,29.83,SW,225,6.0,10.0,83,0.00,,,0.02,meteohub,2013-04-21 22:41:00,
2013-04-21 23:47:00,40.8,35.8,29.83,WSW,247,6.0,9.0,82,0.00,,,0.02,meteohub,2013-04-21 22:47:00,
2013-04-21 23:52:00,40.8,36.1,29.81,SW,225,6.0,9.0,83,0.00,,,0.02,meteohub,2013-04-21 22:52:00,
2013-04-21 23:57:00,40.8,36.1,29.81,WSW,247,8.0,11.0,83,0.00,,,0.02,meteohub,2013-04-21 22:57:00,